Monticello, KY

9:11 PM CDT on August 29, 2016 (GMT -0500)
Wayne County

Weather History for KEKQ - August, 2014

Change the Weather History Date:

Friday, August 29, 2014

  Actual Average Record
Temperature  
Mean Temperature 79 °F -  
Max Temperature 90 °F 85 °F 96 °F (1957)
Min Temperature 66 °F 62 °F 44 °F (1965)
Cooling Degree Days 14    
Growing Degree Days 29 (Base 50)    
Moisture  
Dew Point 69 °F    
Average Humidity 82    
Maximum Humidity 100    
Minimum Humidity 45    
Precipitation  
Precipitation 0.00 in - - ()
Sea Level Pressure  
Sea Level Pressure 30.07 in    
Wind  
Wind Speed 1 mph (WSW)    
Max Wind Speed 8 mph    
Max Gust Speed -    
Visibility 6 miles    
Events      
Averages and records for this station are not official NWS values.
T = Trace of Precipitation, MM = Missing Value Source: NWS Daily Summary

Daily Weather History Graph

Daily Weather History Graph

Search for Another Location

Airport or City:

Trip Planner

Search our weather history database for the weather conditions in past years. The results will help you decide how hot, cold, wet, or windy it might be!

Date:

Astronomy

Aug. 29, 2014 Rise Set
Actual Time 6:07 AM CDT 7:12 PM CDT
Civil Twilight 5:41 AM CDT 7:38 PM CDT
Nautical Twilight 5:09 AM CDT 8:10 PM CDT
Astronomical Twilight 4:36 AM CDT 8:43 PM CDT
Moon 9:50 AM CDT (8/29) 9:16 PM CDT (8/29)
Length of Visible Light 13h 57m
Length of Day
13h 04m
Waxing Crescent, 15% of the Moon is Illuminated
Aug 29
Waxing Crescent
Sep 2
First Quarter
Sep 8
Full
Sep 15
Last Quarter
Sep 24
New

Hourly Weather History & Observations

Time (CDT) Temp. Heat Index Dew Point Humidity Pressure Visibility Wind Dir Wind Speed Gust Speed Precip Events Conditions
12:56 AM 70.9 °F - 70.0 °F 97% 30.05 in 4.0 mi Calm Calm - N/A   Clear
1:56 AM 70.0 °F - 68.9 °F 96% 30.05 in 3.0 mi Calm Calm - N/A   Clear
2:20 AM 69.8 °F - 69.8 °F 100% 30.06 in 2.5 mi Calm Calm - N/A   Clear
2:34 AM 69.8 °F - 69.8 °F 100% 30.06 in 3.0 mi Calm Calm - N/A   Clear
2:56 AM 70.9 °F - 70.0 °F 97% 30.04 in 4.0 mi Calm Calm - N/A   Clear
3:56 AM 70.9 °F - 70.0 °F 97% 30.04 in 4.0 mi Calm Calm - N/A   Clear
4:17 AM 71.6 °F - 69.8 °F 94% 30.06 in 2.5 mi Calm Calm - N/A   Clear
4:24 AM 69.8 °F - 69.8 °F 100% 30.06 in 3.0 mi Calm Calm - N/A   Clear
4:56 AM 70.9 °F - 70.0 °F 97% 30.05 in 4.0 mi Calm Calm - N/A   Clear
5:44 AM 69.8 °F - 68.0 °F 94% 30.07 in 2.5 mi Calm Calm - N/A   Clear
5:56 AM 68.9 °F - 68.0 °F 97% 30.06 in 2.5 mi Calm Calm - N/A   Clear
6:11 AM 69.8 °F - 68.0 °F 94% 30.08 in 1.5 mi Calm Calm - N/A   Clear
6:56 AM 70.0 °F - 68.9 °F 96% 30.08 in 1.5 mi Calm Calm - N/A   Clear
7:23 AM 73.4 °F - 71.6 °F 94% 30.09 in 2.0 mi Calm Calm - N/A   Clear
7:39 AM 75.2 °F - 71.6 °F 89% 30.10 in 4.0 mi Calm Calm - N/A   Clear
7:56 AM 77.0 °F - 72.0 °F 84% 30.09 in 4.0 mi Calm Calm - N/A   Haze
8:56 AM 79.9 °F - 72.9 °F 79% 30.09 in 8.0 mi Calm Calm - N/A   Partly Cloudy
9:56 AM 83.8 °F 91.4 °F 74.8 °F 74% 30.10 in 10.0 mi Calm Calm - N/A   Clear
10:56 AM 88.0 °F 93.8 °F 70.9 °F 57% 30.09 in 10.0 mi Variable 5.8 mph - N/A   Clear
11:56 AM 90.0 °F 93.6 °F 68.0 °F 48% 30.08 in 10.0 mi West 5.8 mph - N/A   Partly Cloudy
12:56 PM 90.9 °F 94.8 °F 68.0 °F 47% 30.07 in 10.0 mi West 6.9 mph - N/A   Clear
1:56 PM 90.9 °F 94.0 °F 66.9 °F 45% 30.06 in 10.0 mi WSW 6.9 mph - N/A   Clear
2:56 PM 90.9 °F 94.8 °F 68.0 °F 47% 30.05 in 10.0 mi WSW 8.1 mph - N/A   Partly Cloudy
3:56 PM 90.9 °F 94.0 °F 66.9 °F 45% 30.03 in 10.0 mi SSW 6.9 mph - N/A   Clear
4:56 PM 90.0 °F 93.6 °F 68.0 °F 48% 30.03 in 10.0 mi SW 6.9 mph - N/A   Clear
5:56 PM 86.0 °F 89.7 °F 68.9 °F 56% 30.04 in 10.0 mi SW 4.6 mph - N/A   Clear
6:56 PM 77.9 °F - 72.0 °F 82% 30.05 in 10.0 mi Calm Calm - N/A   Clear
7:56 PM 73.9 °F - 70.9 °F 90% 30.06 in 10.0 mi Calm Calm - N/A   Clear
8:56 PM 70.9 °F - 68.9 °F 93% 30.07 in 10.0 mi Calm Calm - N/A   Clear
9:56 PM 70.9 °F - 68.9 °F 93% 30.09 in 7.0 mi Calm Calm - N/A   Clear
10:56 PM 68.0 °F - 66.9 °F 96% 30.09 in 6.0 mi Calm Calm - N/A   Clear
11:56 PM 66.9 °F - 66.9 °F 100% 30.10 in 4.0 mi Calm Calm - N/A   Clear